Location: Newark
(45.6833°N, 12.6333°E)
Time: 21:25:21
(UTC+00:00)

N. Korean satellite - Pass Details

Date: 22 November 2019
Orbit: 456 x 506 km, 97.2° (Epoch: 06 December)

Event Time Altitude Azimuth Distance (km) Brightness Sun altitude
Rises 17:01:37 0° 200° (SSW) 2,567 10.7 -15.3°
Reaches altitude 10° 17:04:04 10° 217° (SW) 1,699 10.0 -15.7°
Maximum altitude 17:06:52 21° 267° (W) 1,185 9.5 -16.2°
Drops below altitude 10° 17:09:43 10° 317° (NW) 1,724 9.7 -16.7°
Sets 17:12:14 0° 334° (NNW) 2,619 10.5 -17.1°
